Location: Tanglewood
(30.5380°N, 91.0751°W)
Time: 07:20:52
(UTC+00:00)

ISS - Visible Passes

Search period start: 15 November 2019 00:00
Search period end: 25 November 2019 00:00
Orbit: 412 x 421 km, 51.6° (Epoch: 15 November)

Date Brightness Start Highest point End Pass type
(mag) Time Alt. Az. Time Alt. Az. Time Alt. Az.
15 Nov -3.4 11:01:33 48° SSW 11:01:33 48° SSW 11:04:31 10° SSE visible
16 Nov -0.7 10:15:49 14° SE 10:15:49 14° SE 10:16:18 10° SE visible
18 Nov -1.7 00:24:12 10° S 00:25:40 16° SSE 00:25:40 16° SSE visible
19 Nov -1.3 01:11:23 10° WSW 01:12:48 23° WSW 01:12:48 23° WSW visible
20 Nov -3.9 00:22:58 10° SW 00:26:16 70° SE 00:26:53 53° ENE visible
20 Nov -2.8 23:34:56 10° SSW 23:37:57 32° SE 23:40:53 11° ENE visible
21 Nov -1.0 01:12:21 10° W 01:13:49 16° WNW 01:13:49 16° WNW visible
22 Nov -2.2 00:23:11 10° WSW 00:26:11 30° NW 00:27:43 21° N visible
22 Nov -3.3 23:34:25 10° SW 23:37:43 60° NW 23:41:02 10° NE visible
24 Nov -1.0 00:24:58 10° WNW 00:26:19 12° NNW 00:27:40 10° N visible
24 Nov -1.5 23:35:12 10° W 23:37:40 19° NW 23:40:10 10° N visible
